IRIDIUM 33 DEB, 36083

Orbit data source: Space-Track

IRIDIUM 33 DEB, 36083 is space debris in LEO originally from a launch on Sun, 14 Sep 1997 UTC launched from the Tyuratam Missile And Space Complex (TTMTR). The debris from Iridium 33, an American commercial communications satellite, has been tracked extensively since its accidental collision with the defunct Russian satellite Cosmos 2251 in 2009. This event, occurring at high speed in low Earth orbit (LEO), generated thousands of pieces of space debris, significantly increasing the risk of further collisions. The Iridium 33 debris cloud has impacted space traffic management and orbital debris mitigation strategies, making it a subject of ongoing study in space situational awareness.

Loading next visibility...
Identifier
36083, 1997-051VQ
Orbit
LEO
Country
Flag of USUS
Related business
Manufacturer
Unknown
Mission
Spacecraft
Bus & Motor
Unknown
Mass
Unknown
Launch date (UTC)
1997-09-14 (28 years ago)
Launch vehicle
Unknown
Launch site
Tyuratam Missile And Space Complex (TTMTR)
Object type
Payload
Rocket body
Debris
Shape & HBR
Unknown shape, 0.1 m
Radar Cross Section
Small (<0.1 m²)

Expand to show TLE details & history
Last TLE update: 2 days ago

TLE from 2 days ago
0 IRIDIUM 33 DEB
1 36083U 97051VQ  26036.21422052  .00003285  00000-0  96181-3 0  9993
2 36083  86.3454  10.6913 0028320  49.5541 310.8122 14.43461375862354
Epoch: 2026-02-05T05:08Z
TLE epoch observation values (Epoch: 2026-02-05T05:08:28.652Z)
Latitude
-0.00013°
Longitude
158.20225°
Altitude
736.99 km
Speed
7.493 km/s
True Right ascension
00h 42m 45s
True Declination
0° 00' 00"
Sunlit
Object was in daylight at epoch
Visualization orbit readout
Latitude
Unknown
Longitude
Unknown
Altitude
Unknown
Speed
Unknown
Apparent Right ascension
Unknown
Apparent Declination
Unknown
Sunlit
N/A
Visualization observer readout
Local Sidereal Time
06:15:39
Azimuth
Unknown
Elevation
Unknown
Doppler factor
Unknown
Orbital elements
Apogee altitude
764.207 km
Perigee altitude
723.867 km
Semi-major axis
7,122.174 km
Eccentricity
0.00283
Inclination
86.3454°
RAAN
10.6913°
Arg. of periapsis
49.5541°
True anomaly
310.56601°
Mean anomaly
310.8122°
Eccentric anomaly
310.68916°
Mean motion
3.61097 °/min
Orbital period
99.7 mins
BSTAR
0.00096181
Loading maneuver chart data...
Computing Atmospheric mass density...

Documentation

Showing up to 5 results
|